This is the latest recevied weather packets stored in our database for station/object W4SNA-4. If no packets are shown the sender has not sent any weather packets the latest 10 day(s).
| Time | Temp. | Humidity | Pressure | Rain* | Wind** | Luminosity | Snow |
|---|---|---|---|---|---|---|---|
| 1777676663 | 16.11° C | 66% | 1006.3 hPa | 0 mm | - | - | - |
| 1777676363 | 16.67° C | 66% | 1006.3 hPa | 0 mm | - | - | - |
| 1777676063 | 16.67° C | 65% | 1006.2 hPa | 0 mm | - | - | - |
| 1777675556 | 16.67° C | 65% | 1006.2 hPa | 0 mm | - | - | - |
| 1777675257 | 16.67° C | 64% | 1006.2 hPa | 0 mm | - | - | - |
| 1777674957 | 16.67° C | 63% | 1006.1 hPa | 0 mm | - | - | - |
| 1777674657 | 16.67° C | 62% | 1006.1 hPa | 0 mm | - | - | - |
| 1777674378 | 17.22° C | 62% | 1006.1 hPa | 0 mm | - | - | - |
| 1777674057 | 17.22° C | 60% | 1006.1 hPa | 0 mm | - | - | - |
| 1777673756 | 17.22° C | 60% | 1006.1 hPa | 0 mm | - | - | - |
| 1777673457 | 17.22° C | 59% | 1006.1 hPa | 0 mm | - | - | - |
| 1777673161 | 17.22° C | 59% | 1006.2 hPa | 0 mm | - | - | - |
| 1777672857 | 17.22° C | 58% | 1006.2 hPa | 0 mm | - | - | - |
| 1777672557 | 17.22° C | 59% | 1006.2 hPa | 0 mm | - | - | - |
| 1777672256 | 17.22° C | 60% | 1006.3 hPa | 0 mm | - | - | - |
| 1777671961 | 17.22° C | 56% | 1006.3 hPa | 0 mm | - | - | - |
| 1777671656 | 17.22° C | 57% | 1006.3 hPa | 0 mm | - | - | - |
| 1777671360 | 17.22° C | 56% | 1006.6 hPa | 0 mm | - | - | - |
| 1777671101 | 17.22° C | 56% | 1006.6 hPa | 0 mm | - | - | - |
| 1777671057 | 17.22° C | 56% | 1006.6 hPa | 0 mm | - | - | - |
| 1777670758 | 17.78° C | 56% | 1006.6 hPa | 0 mm | - | - | - |
| 1777670462 | 17.78° C | 55% | 1006.6 hPa | 0 mm | - | - | - |
| 1777670157 | 17.78° C | 55% | 1006.6 hPa | 0 mm | - | - | - |
| 1777669856 | 17.78° C | 54% | 1006.6 hPa | 0 mm | - | - | - |
| 1777669558 | 17.78° C | 57% | 1006.6 hPa | 0 mm | - | - | - |
* Rain latest hour (hover to see other rain measurements)
** Current wind speed in m/s (hover to see current wind gust speed)